• In Spain
  • List of Countries
  • For 7 days
  • Water Temperature
  • Satellite Maps
  • Weather Map
  • Weather Widgets
  • user-avatar
    Login

    Hourly Weather Ondjiwa

    Today, 22 January, Monday

    Time Temperature Precipitation Wind Pressure Humidity
    00:00 +25°C° 2 mm 3 mps 666 mmHg 67%
    01:00 +23°C° 0 mm 4 mps 666 mmHg 73%
    02:00 +24°C° 0.3 mm 3 mps 666 mmHg 71%
    03:00 +24°C° 0.3 mm 3 mps 666 mmHg 69%
    04:00 +22°C° 0.3 mm 3 mps 666 mmHg 66%
    05:00 +22°C° 0 mm 3 mps 666 mmHg 65%
    06:00 +22°C° 0 mm 3 mps 666 mmHg 63%
    07:00 +22°C° 0 mm 3 mps 666 mmHg 61%
    08:00 +25°C° 0 mm 3 mps 667 mmHg 53%
    09:00 +26°C° 0 mm 3 mps 667 mmHg 45%
    10:00 +28°C° 0 mm 3 mps 668 mmHg 37%
    11:00 +29°C° 0 mm 3 mps 667 mmHg 35%
    12:00 +30°C° 0 mm 3 mps 667 mmHg 32%
    13:00 +31°C° 0 mm 2 mps 667 mmHg 30%
    14:00 +32°C° 0 mm 2 mps 666 mmHg 30%
    15:00 +32°C° 0 mm 2 mps 666 mmHg 29%
    16:00 +32°C° 0 mm 2 mps 665 mmHg 29%
    17:00 +31°C° 0 mm 2 mps 665 mmHg 32%
    18:00 +29°C° 0 mm 2 mps 665 mmHg 34%
    19:00 +28°C° 0 mm 2 mps 665 mmHg 37%
    20:00 +28°C° 0 mm 2 mps 665 mmHg 39%
    21:00 +27°C° 0 mm 2 mps 665 mmHg 41%
    22:00 +27°C° 0 mm 2 mps 666 mmHg 42%
    23:00 +26°C° 0 mm 2 mps 666 mmHg 47%

    Tomorrow, 23 January, Tuesday

    Time Temperature Precipitation Wind Pressure Humidity
    00:00 +26°C° 0 mm 3 mps 666 mmHg 51%
    01:00 +25°C° 0 mm 3 mps 666 mmHg 56%
    02:00 +25°C° 0 mm 3 mps 665 mmHg 58%
    03:00 +24°C° 0 mm 2 mps 665 mmHg 60%
    04:00 +24°C° 0 mm 2 mps 665 mmHg 62%
    05:00 +24°C° 0 mm 2 mps 665 mmHg 59%
    06:00 +24°C° 0 mm 2 mps 666 mmHg 55%
    07:00 +24°C° 0 mm 2 mps 666 mmHg 52%
    08:00 +26°C° 0 mm 2 mps 666 mmHg 45%
    09:00 +28°C° 0 mm 2 mps 667 mmHg 37%
    10:00 +29°C° 0 mm 2 mps 667 mmHg 29%
    11:00 +31°C° 0 mm 2 mps 667 mmHg 27%
    12:00 +34°C° 0 mm 2 mps 666 mmHg 25%
    13:00 +34°C° 0 mm 1 mps 666 mmHg 23%
    14:00 +34°C° 0 mm 1 mps 665 mmHg 24%
    15:00 +35°C° 0 mm 1 mps 665 mmHg 24%
    16:00 +35°C° 0 mm 1 mps 664 mmHg 24%
    17:00 +33°C° 0 mm 1 mps 664 mmHg 26%
    18:00 +32°C° 0 mm 1 mps 664 mmHg 29%
    19:00 +31°C° 0 mm 1 mps 664 mmHg 32%
    20:00 +30°C° 0 mm 1 mps 664 mmHg 34%
    21:00 +29°C° 0 mm 2 mps 665 mmHg 37%
    22:00 +28°C° 0 mm 2 mps 665 mmHg 40%
    23:00 +27°C° 0 mm 3 mps 665 mmHg 46%

    Day after tomorrow, 24 January, Wednesday

    Time Temperature Precipitation Wind Pressure Humidity
    00:00 +26°C° 0 mm 4 mps 665 mmHg 53%
    01:00 +26°C° 0 mm 5 mps 665 mmHg 59%
    02:00 +25°C° 0 mm 4 mps 665 mmHg 59%
    03:00 +23°C° 0 mm 4 mps 665 mmHg 60%
    04:00 +24°C° 0 mm 3 mps 664 mmHg 60%
    05:00 +24°C° 0 mm 3 mps 665 mmHg 59%
    06:00 +24°C° 0 mm 3 mps 666 mmHg 58%
    07:00 +24°C° 0 mm 3 mps 666 mmHg 57%
    08:00 +26°C° 0 mm 3 mps 666 mmHg 49%
    09:00 +28°C° 0 mm 3 mps 667 mmHg 41%
    10:00 +30°C° 0 mm 3 mps 667 mmHg 33%
    11:00 +31°C° 0 mm 2 mps 667 mmHg 31%
    12:00 +34°C° 0 mm 2 mps 666 mmHg 29%
    13:00 +35°C° 0 mm 2 mps 666 mmHg 27%
    14:00 +35°C° 0 mm 2 mps 666 mmHg 27%
    15:00 +35°C° 0 mm 2 mps 665 mmHg 27%
    16:00 +35°C° 0 mm 2 mps 664 mmHg 27%
    17:00 +33°C° 0 mm 1 mps 664 mmHg 30%
    18:00 +32°C° 0 mm 1 mps 664 mmHg 32%
    19:00 +31°C° 0 mm 1 mps 665 mmHg 35%
    20:00 +30°C° 0.2 mm 2 mps 665 mmHg 41%
    21:00 +29°C° 0.2 mm 3 mps 666 mmHg 46%
    22:00 +28°C° 0.2 mm 3 mps 666 mmHg 51%
    23:00 +27°C° 0.3 mm 4 mps 666 mmHg 53%

    25 January, Thursday

    Time Temperature Precipitation Wind Pressure Humidity
    00:00 +26°C° 0.3 mm 4 mps 666 mmHg 54%
    01:00 +26°C° 0.3 mm 4 mps 665 mmHg 56%
    02:00 +25°C° 0.3 mm 4 mps 665 mmHg 55%
    03:00 +25°C° 0.3 mm 3 mps 665 mmHg 55%
    04:00 +24°C° 0.3 mm 3 mps 665 mmHg 55%
    05:00 +24°C° 0 mm 3 mps 665 mmHg 53%
    06:00 +24°C° 0 mm 3 mps 666 mmHg 51%
    07:00 +25°C° 0 mm 3 mps 666 mmHg 49%
    08:00 +26°C° 0 mm 3 mps 667 mmHg 41%
    09:00 +28°C° 0 mm 3 mps 667 mmHg 34%
    10:00 +30°C° 0 mm 3 mps 667 mmHg 26%
    11:00 +31°C° 0 mm 3 mps 667 mmHg 25%
    12:00 +33°C° 0 mm 3 mps 667 mmHg 23%
    13:00 +35°C° 0 mm 3 mps 666 mmHg 22%
    14:00 +35°C° 0 mm 3 mps 666 mmHg 22%
    15:00 +35°C° 0 mm 3 mps 665 mmHg 22%
    16:00 +35°C° 0 mm 3 mps 665 mmHg 23%
    17:00 +34°C° 0 mm 3 mps 665 mmHg 25%
    18:00 +31°C° 0 mm 2 mps 665 mmHg 27%
    19:00 +30°C° 0 mm 1 mps 665 mmHg 29%
    20:00 +30°C° 0 mm 2 mps 665 mmHg 29%
    21:00 +29°C° 0 mm 2 mps 666 mmHg 29%
    22:00 +29°C° 0 mm 2 mps 666 mmHg 29%
    23:00 +28°C° 0 mm 2 mps 666 mmHg 33%

    26 January, Friday

    Time Temperature Precipitation Wind Pressure Humidity
    00:00 +28°C° 0 mm 2 mps 666 mmHg 37%
    01:00 +27°C° 0 mm 2 mps 665 mmHg 41%
    02:00 +26°C° 0.1 mm 2 mps 665 mmHg 43%
    03:00 +25°C° 0.1 mm 2 mps 665 mmHg 46%
    04:00 +25°C° 0.1 mm 3 mps 665 mmHg 48%
    05:00 +25°C° 0 mm 2 mps 665 mmHg 47%
    06:00 +25°C° 0 mm 2 mps 666 mmHg 46%
    07:00 +25°C° 0 mm 2 mps 666 mmHg 45%
    08:00 +27°C° 0 mm 2 mps 667 mmHg 39%
    09:00 +29°C° 0 mm 3 mps 667 mmHg 33%
    10:00 +31°C° 0 mm 3 mps 668 mmHg 27%
    11:00 +33°C° 0 mm 3 mps 667 mmHg 26%
    12:00 +35°C° 0 mm 2 mps 667 mmHg 25%
    13:00 +36°C° 0 mm 2 mps 666 mmHg 23%
    14:00 +36°C° 0 mm 2 mps 665 mmHg 24%
    15:00 +36°C° 0 mm 2 mps 665 mmHg 24%
    16:00 +36°C° 0 mm 2 mps 664 mmHg 25%
    17:00 +35°C° 0 mm 2 mps 664 mmHg 28%
    18:00 +33°C° 0 mm 1 mps 664 mmHg 31%
    19:00 +31°C° 0 mm 1 mps 664 mmHg 34%
    20:00 +30°C° 1 mm 2 mps 664 mmHg 42%
    21:00 +29°C° 1 mm 3 mps 665 mmHg 50%
    22:00 +27°C° 1 mm 5 mps 665 mmHg 58%
    23:00 +26°C° 2.6 mm 4 mps 665 mmHg 63%

    27 January, Saturday

    Time Temperature Precipitation Wind Pressure Humidity
    00:00 +25°C° 2.6 mm 4 mps 665 mmHg 69%
    01:00 +23°C° 2.6 mm 4 mps 664 mmHg 74%
    02:00 +24°C° 0.2 mm 3 mps 664 mmHg 75%
    03:00 +24°C° 0.2 mm 2 mps 664 mmHg 76%
    04:00 +24°C° 0.2 mm 2 mps 664 mmHg 76%
    05:00 +24°C° 0.1 mm 1 mps 665 mmHg 75%
    06:00 +24°C° 0.1 mm 1 mps 665 mmHg 73%
    07:00 +25°C° 0.1 mm 1 mps 666 mmHg 71%
    08:00 +24°C° 0 mm 0 mps 666 mmHg 65%
    09:00 +26°C° 0 mm 0 mps 667 mmHg 58%
    10:00 +27°C° 0 mm 0 mps 667 mmHg 52%
    11:00 +29°C° 0 mm 0 mps 667 mmHg 47%
    12:00 +31°C° 0 mm 0 mps 666 mmHg 42%
    13:00 +32°C° 0 mm 0 mps 666 mmHg 37%
    14:00 +34°C° 0 mm 1 mps 665 mmHg 38%
    15:00 +33°C° 0 mm 1 mps 665 mmHg 38%
    16:00 +33°C° 0 mm 1 mps 664 mmHg 39%
    17:00 +32°C° 0 mm 1 mps 664 mmHg 42%
    18:00 +31°C° 0 mm 1 mps 664 mmHg 45%
    19:00 +30°C° 0 mm 2 mps 664 mmHg 48%
    20:00 +29°C° 0.2 mm 2 mps 665 mmHg 53%
    21:00 +28°C° 0.2 mm 3 mps 665 mmHg 59%
    22:00 +27°C° 0.2 mm 4 mps 665 mmHg 64%
    23:00 +26°C° 0.2 mm 3 mps 665 mmHg 67%
    Show more